Location: Burgwalden
(48.2830°N, 10.7576°E)
Time: 20:39:40
(UTC+00:00)

Cosmos 372 Rocket - Pass Details

Date: 26 September 2023
Orbit: 735 x 767 km, 74.1° (Epoch: 09 December)

Event Time Altitude Azimuth Distance (km) Brightness Sun altitude
Exits shadow 03:31:11 29° 259° (W) 1,336 4.7 -16.8°
Maximum altitude 03:32:57 38° 301° (WNW) 1,118 4.5 -16.5°
Drops below altitude 10° 03:37:43 10° 10° (N) 2,258 6.8 -15.7°
Sets 03:40:15 0° 19° (NNE) 3,188 7.7 -15.3°
